Rugby, ND

9:24 AM CDT on March 28, 2017 (GMT -0500)
Rugby Municipal

Weather History for KRUG - October, 2013

Change the Weather History Date:

Sunday, October 6, 2013

  Actual Average Record
Temperature  
Mean Temperature 46 °F -  
Max Temperature 68 °F 58 °F 83 °F (1949)
Min Temperature 24 °F 33 °F 16 °F (1954)
Degree Days  
Heating Degree Days 19    
Moisture  
Dew Point 32 °F    
Average Humidity 69    
Maximum Humidity 100    
Minimum Humidity 28    
Precipitation  
Precipitation 0.00 in - - ()
Sea Level Pressure  
Sea Level Pressure 29.94 in    
Wind  
Wind Speed 6 mph (WNW)    
Max Wind Speed 21 mph    
Max Gust Speed 24 mph    
Visibility 10 miles    
Events      
Averages and records for this station are not official NWS values.
T = Trace of Precipitation, MM = Missing Value Source: NWS Daily Summary

Daily Weather History Graph

Daily Weather History Graph

Search for Another Location

Airport or City:

Trip Planner

Search our weather history database for the weather conditions in past years. The results will help you decide how hot, cold, wet, or windy it might be!

Date:

Astronomy

Oct. 06, 2013 Rise Set
Actual Time 7:47 AM CDT 7:08 PM CDT
Civil Twilight 7:15 AM CDT 7:39 PM CDT
Nautical Twilight 6:39 AM CDT 8:15 PM CDT
Astronomical Twilight 6:02 AM CDT 8:52 PM CDT
Moon 9:44 AM CDT (10/6) 7:56 PM CDT (10/6)
Length of Visible Light 12h 23m
Length of Day
11h 21m
Waxing Crescent, 3% of the Moon is Illuminated
Oct 6
Waxing Crescent
Oct 11
First Quarter
Oct 18
Full
Oct 26
Last Quarter
Nov 3
New

Hourly Weather History & Observations

Time (CDT) Temp. Windchill Dew Point Humidity Pressure Visibility Wind Dir Wind Speed Gust Speed Precip Events Conditions
12:15 AM 32.0 °F - 28.4 °F 87% 30.01 in 10.0 mi Calm Calm - N/A   Clear
12:35 AM 30.2 °F 26.7 °F 26.6 °F 86% 30.02 in 10.0 mi SSE 3.5 mph - N/A   Clear
12:55 AM 30.2 °F 25.4 °F 28.4 °F 93% 30.01 in 10.0 mi WSW 4.6 mph - N/A   Clear
1:15 AM 30.2 °F 25.4 °F 26.6 °F 86% 30.02 in 10.0 mi WNW 4.6 mph - N/A   Clear
1:35 AM 26.6 °F - 24.8 °F 93% 30.02 in 10.0 mi Calm Calm - N/A   Clear
1:55 AM 26.6 °F - 26.6 °F 100% 30.02 in 10.0 mi Calm Calm - N/A   Clear
2:15 AM 28.4 °F 24.6 °F 26.6 °F 93% 30.03 in 10.0 mi NW 3.5 mph - N/A   Clear
2:35 AM 28.4 °F 23.3 °F 26.6 °F 93% 30.02 in 10.0 mi WNW 4.6 mph - N/A   Clear
2:55 AM 28.4 °F 20.4 °F 26.6 °F 93% 30.01 in 10.0 mi WNW 8.1 mph - N/A   Clear
3:15 AM 26.6 °F 22.6 °F 26.6 °F 100% 30.01 in 10.0 mi WNW 3.5 mph - N/A   Clear
3:35 AM 26.6 °F - 26.6 °F 100% 30.00 in 10.0 mi Calm Calm - N/A   Clear
3:55 AM 26.6 °F - 26.6 °F 100% 29.99 in 10.0 mi Calm Calm - N/A   Clear
4:15 AM 26.6 °F 21.2 °F 26.6 °F 100% 29.99 in 10.0 mi West 4.6 mph - N/A   Clear
4:35 AM 26.6 °F 21.2 °F 26.6 °F 100% 29.99 in 10.0 mi WNW 4.6 mph - N/A   Clear
4:55 AM 26.6 °F - 26.6 °F 100% 29.99 in 10.0 mi Calm Calm - N/A   Clear
5:15 AM 26.6 °F 20.0 °F 26.6 °F 100% 29.99 in 10.0 mi West 5.8 mph - N/A   Clear
5:35 AM 26.6 °F 20.0 °F 26.6 °F 100% 29.98 in 10.0 mi WNW 5.8 mph - N/A   Clear
5:55 AM 24.8 °F 19.1 °F 24.8 °F 100% 29.98 in 10.0 mi WNW 4.6 mph - N/A   Clear
6:15 AM 24.8 °F 19.1 °F 24.8 °F 100% 29.97 in 10.0 mi West 4.6 mph - N/A   Clear
6:35 AM 26.6 °F 18.2 °F 26.6 °F 100% 29.97 in 10.0 mi West 8.1 mph - N/A   Clear
6:55 AM 26.6 °F 21.2 °F 26.6 °F 100% 29.97 in 10.0 mi West 4.6 mph - N/A   Clear
7:15 AM 26.6 °F 20.0 °F 26.6 °F 100% 29.97 in 10.0 mi WNW 5.8 mph - N/A   Clear
7:35 AM 26.6 °F 20.0 °F 26.6 °F 100% 29.97 in 10.0 mi West 5.8 mph - N/A   Clear
7:55 AM 26.6 °F - 26.6 °F 100% 29.97 in 10.0 mi Calm Calm - N/A   Clear
8:15 AM 28.4 °F - 26.6 °F 93% 29.97 in 10.0 mi Calm Calm - N/A   Clear
8:35 AM 28.4 °F 24.6 °F 28.4 °F 100% 29.97 in 10.0 mi West 3.5 mph - N/A   Clear
8:55 AM 32.0 °F 28.7 °F 28.4 °F 87% 29.97 in 10.0 mi West 3.5 mph - N/A   Clear
9:15 AM 32.0 °F 27.5 °F 30.2 °F 93% 29.97 in 10.0 mi West 4.6 mph - N/A   Clear
9:35 AM 35.6 °F 29.9 °F 30.2 °F 81% 29.97 in 10.0 mi West 6.9 mph - N/A   Clear
9:55 AM 37.4 °F 31.4 °F 32.0 °F 81% 29.97 in 10.0 mi WNW 8.1 mph - N/A   Clear
10:15 AM 41.0 °F 34.3 °F 32.0 °F 70% 29.96 in 10.0 mi WNW 11.5 mph - N/A   Clear
10:35 AM 42.8 °F 37.0 °F 32.0 °F 66% 29.96 in 10.0 mi WNW 10.4 mph - N/A   Clear
10:55 AM 44.6 °F 40.2 °F 33.8 °F 66% 29.96 in 10.0 mi West 8.1 mph - N/A   Clear
11:15 AM 46.4 °F 42.4 °F 33.8 °F 62% 29.96 in 10.0 mi West 8.1 mph - N/A   Clear
11:35 AM 50.0 °F - 33.8 °F 54% 29.95 in 10.0 mi West 8.1 mph - N/A   Clear
11:55 AM 51.8 °F - 33.8 °F 50% 29.95 in 10.0 mi WNW 10.4 mph - N/A   Clear
12:15 PM 53.6 °F - 33.8 °F 47% 29.95 in 10.0 mi WNW 10.4 mph - N/A   Clear
12:35 PM 55.4 °F - 33.8 °F 44% 29.94 in 10.0 mi West 10.4 mph - N/A   Clear
12:55 PM 57.2 °F - 33.8 °F 41% 29.94 in 10.0 mi West 10.4 mph - N/A   Clear
1:15 PM 59.0 °F - 35.6 °F 42% 29.93 in 10.0 mi WNW 13.8 mph 19.6 mph N/A   Clear
1:35 PM 60.8 °F - 35.6 °F 39% 29.92 in 10.0 mi West 11.5 mph - N/A   Clear
1:55 PM 62.6 °F - 37.4 °F 39% 29.90 in 10.0 mi West 11.5 mph - N/A   Clear
2:15 PM 64.4 °F - 35.6 °F 34% 29.89 in 10.0 mi West 15.0 mph 18.4 mph N/A   Clear
2:35 PM 66.2 °F - 35.6 °F 32% 29.88 in 10.0 mi WNW 16.1 mph 20.7 mph N/A   Clear
2:55 PM 66.2 °F - 35.6 °F 32% 29.88 in 10.0 mi WNW 19.6 mph - N/A   Clear
3:15 PM 66.2 °F - 33.8 °F 30% 29.88 in 10.0 mi WNW 17.3 mph - N/A   Clear
3:35 PM 66.2 °F - 33.8 °F 30% 29.87 in 10.0 mi West 17.3 mph 21.9 mph N/A   Clear
3:55 PM 68.0 °F - 33.8 °F 28% 29.86 in 10.0 mi WNW 20.7 mph 24.2 mph N/A   Clear
4:15 PM 68.0 °F - 33.8 °F 28% 29.87 in 10.0 mi WNW 20.7 mph - N/A   Clear
4:35 PM 68.0 °F - 35.6 °F 30% 29.86 in 10.0 mi WNW 17.3 mph - N/A   Clear
4:55 PM 68.0 °F - 35.6 °F 30% 29.86 in 10.0 mi WNW 15.0 mph 19.6 mph N/A   Clear
5:15 PM 68.0 °F - 35.6 °F 30% 29.86 in 10.0 mi NW 12.7 mph - N/A   Clear
5:35 PM 68.0 °F - 35.6 °F 30% 29.86 in 10.0 mi NW 16.1 mph - N/A   Clear
5:55 PM 68.0 °F - 35.6 °F 30% 29.86 in 10.0 mi WNW 16.1 mph 24.2 mph N/A   Clear
6:15 PM 66.2 °F - 37.4 °F 35% 29.86 in 10.0 mi NW 13.8 mph - N/A   Partly Cloudy
6:35 PM 66.2 °F - 39.2 °F 37% 29.86 in 10.0 mi NW 13.8 mph - N/A   Mostly Cloudy
6:55 PM 64.4 °F - 39.2 °F 40% 29.86 in 10.0 mi NW 6.9 mph - N/A   Overcast
7:15 PM 59.0 °F - 39.2 °F 48% 29.87 in 10.0 mi NW 9.2 mph - N/A   Scattered Clouds
7:35 PM 57.2 °F - 39.2 °F 51% 29.87 in 10.0 mi NNW 10.4 mph - N/A   Clear
7:55 PM 55.4 °F - 39.2 °F 54% 29.88 in 10.0 mi NW 10.4 mph - N/A   Clear
8:15 PM 53.6 °F - 39.2 °F 58% 29.88 in 10.0 mi NW 10.4 mph - N/A   Clear
8:35 PM 51.8 °F - 39.2 °F 62% 29.88 in 10.0 mi NW 9.2 mph - N/A   Clear
8:55 PM 50.0 °F - 39.2 °F 66% 29.89 in 10.0 mi NNW 9.2 mph - N/A   Clear
9:15 PM 50.0 °F - 39.2 °F 66% 29.89 in 10.0 mi NW 9.2 mph - N/A   Clear
9:35 PM 48.2 °F - 37.4 °F 66% 29.90 in 10.0 mi NW 9.2 mph - N/A   Clear
9:55 PM 46.4 °F - 37.4 °F 71% 29.90 in 10.0 mi Calm Calm - N/A   Clear
10:15 PM 44.6 °F 43.1 °F 37.4 °F 76% 29.90 in 10.0 mi NNW 3.5 mph - N/A   Clear
10:35 PM 44.6 °F - 37.4 °F 76% 29.91 in 10.0 mi Calm Calm - N/A   Clear
10:55 PM 44.6 °F 43.1 °F 37.4 °F 76% 29.91 in 10.0 mi WNW 3.5 mph - N/A   Clear
11:15 PM 44.6 °F 42.2 °F 37.4 °F 76% 29.91 in 10.0 mi NNW 4.6 mph - N/A   Clear
11:35 PM 44.6 °F 42.2 °F 37.4 °F 76% 29.91 in 10.0 mi North 4.6 mph - N/A   Clear
11:55 PM 41.0 °F 37.1 °F 35.6 °F 81% 29.91 in 10.0 mi WNW 5.8 mph - N/A   Clear